Stations météo

réclame
Mon MeteoGroup
Zwiesel, Allemagne (10796): Température de l'air & dewpoint: 17.10.2018 08:00:00 - 23.10.2018 08:00:00 (CEST)Zwiesel, Allemagne (10796): Température de l'air 5cm & Température de l'air -5cm: 17.10.2018 08:00:00 - 23.10.2018 08:00:00 (CEST)Zwiesel, Allemagne (10796): Température de l'air -20cm & Température de l'air -100cm: 17.10.2018 08:00:00 - 23.10.2018 08:00:00 (CEST)Zwiesel, Allemagne (10796): Vitesse du vent & gusts: 17.10.2018 08:00:00 - 23.10.2018 08:00:00 (CEST)Zwiesel, Allemagne (10796): Direction du vent: 17.10.2018 08:00:00 - 23.10.2018 08:00:00 (CEST)Zwiesel, Allemagne (10796): reduced air pressure: 17.10.2018 08:00:00 - 23.10.2018 08:00:00 (CEST)Zwiesel, Allemagne (10796): visibility: 17.10.2018 08:00:00 - 23.10.2018 08:00:00 (CEST)Zwiesel, Allemagne (10796): Ensoleillement: 17.10.2018 08:00:00 - 23.10.2018 08:00:00 (CEST)Zwiesel, Allemagne (10796): Quantités de précipitations: 17.10.2018 08:00:00 - 23.10.2018 08:00:00 (CEST)
Date & Time tt [°C] td [°C] tt 5cm [°C] tt -5cm [°C] tt -20cm [°C] tt -100cm [°C] ff [km/h] ff [knt] fx [km/h] fx [knt] dd ppp [hPa] vv [km] sd [min] rr [mm]
23.10.2018 08:00:00 - - - - - - - - - - - - - - -
23.10.2018 07:00:00 5,7 3,1 5,4 7,6 8,3 11,9 11 6 17 9 SW 1028,4 31 0 0,0
23.10.2018 06:00:00 6,0 4,4 5,7 7,7 8,3 11,9 2 1 12 7 WSW 1029,1 15 0 0,0
23.10.2018 05:00:00 6,0 4,1 5,8 7,8 8,3 11,9 3 2 5 3 S 1029,1 46 0 0,0
23.10.2018 04:00:00 6,1 3,6 6,1 7,9 8,4 11,9 3 2 13 7 N 1029,3 64 0 0,0
23.10.2018 03:00:00 6,1 3,6 5,8 8,1 8,4 11,9 5 3 13 7 N 1029,8 66 0 0,0
23.10.2018 02:00:00 6,5 4,0 5,8 8,3 8,4 11,9 10 5 26 14 NNE 1030,1 70 0 0,0
23.10.2018 01:00:00 6,9 4,7 6,3 8,5 8,4 11,9 14 8 26 14 N 1030,1 70 0 0,0
23.10.2018 00:00:00 8,2 6,6 7,5 8,6 8,4 11,9 8 5 13 7 N 1029,6 41 0 0,0
22.10.2018 23:00:00 8,3 6,7 7,7 8,6 8,4 11,9 5 3 11 6 NNW 1029,7 16 0 0,0
22.10.2018 22:00:00 7,8 6,3 7,3 8,7 8,4 11,9 3 1 5 3 N 1029,6 13 0 0,8
22.10.2018 21:00:00 8,6 3,7 7,5 8,8 8,4 12,0 2 1 6 4 S 1029,0 6 0 0,0
22.10.2018 20:00:00 8,8 3,2 7,4 9,1 8,3 12,0 2 1 6 4 ESE 1028,3 28 0 0,0
22.10.2018 19:00:00 10,0 2,5 8,4 9,5 8,1 12,0 4 2 15 8 N 1027,6 37 0 0,0
22.10.2018 18:00:00 11,3 1,4 10,3 9,9 7,8 12,0 11 6 32 17 NNW 1026,8 59 11 0,0
22.10.2018 17:00:00 12,8 1,1 13,4 10,1 7,4 12,0 14 8 29 15 NW 1026,1 35 60 0,0
22.10.2018 16:00:00 13,4 2,5 15,3 10,0 7,0 12,0 13 7 21 11 WSW 1025,5 38 60 0,0
22.10.2018 15:00:00 13,3 2,5 15,8 9,5 6,6 12,0 13 7 23 12 WSW 1025,5 25 60 0,0
22.10.2018 14:00:00 12,6 2,0 15,0 8,5 6,3 12,0 11 6 16 9 W 1025,8 24 60 0,0
22.10.2018 13:00:00 11,9 2,2 14,2 6,9 6,2 12,0 9 5 16 8 SSW 1026,5 28 60 0,0
22.10.2018 12:00:00 9,7 1,4 11,5 4,8 6,2 12,0 5 3 8 4 WSW 1027,5 27 60 0,0
22.10.2018 11:00:00 6,1 0,5 7,3 2,7 6,3 12,0 4 2 6 3 SW 1029,1 23 60 0,0
22.10.2018 10:00:00 2,1 -1,3 2,6 2,3 6,5 12,0 3 2 5 3 SW 1030,2 16 60 0,0
22.10.2018 09:00:00 -1,6 -3,2 -1,8 2,4 6,7 12,0 3 1 5 3 N 1031,1 10 37 0,0
22.10.2018 08:00:00 -1,9 -2,4 -4,5 2,6 6,9 12,0 4 2 5 3 S 1030,6 9 0 0,0
22.10.2018 07:00:00 -2,7 -3,6 -4,9 2,8 7,1 12,0 3 2 8 5 NNE 1030,8 8 0 0,0
22.10.2018 06:00:00 -2,0 -2,5 -4,6 3,0 7,3 12,0 2 1 6 3 N 1030,4 6 0 0,0
22.10.2018 05:00:00 -1,7 -2,3 -4,1 3,3 7,5 12,0 3 2 6 4 W 1030,4 11 0 0,0
22.10.2018 04:00:00 -1,6 -2,2 -3,9 3,6 7,8 12,0 4 2 7 4 ESE 1030,6 8 0 0,0
22.10.2018 03:00:00 -1,2 -1,6 -3,6 3,9 8,0 12,0 2 1 6 3 N 1030,9 4,9 0 0,0
22.10.2018 02:00:00 -0,7 -1,3 -3,5 4,3 8,3 12,0 3 2 6 3 SE 1031,1 8 0 0,0
22.10.2018 01:00:00 0,0 -0,5 -3,2 4,9 8,5 12,0 3 2 8 4 NE 1031,0 8 0 0,0
22.10.2018 00:00:00 1,4 0,5 -1,6 5,5 8,8 12,0 5 3 8 4 E 1030,7 17 0 0,0
21.10.2018 23:00:00 1,4 0,4 -1,6 6,1 9,0 12,1 3 2 9 5 E 1030,7 12 0 0,0
21.10.2018 22:00:00 2,9 1,0 -0,3 6,8 9,2 12,1 5 3 11 6 E 1030,3 20 0 0,0
21.10.2018 21:00:00 3,3 1,7 -0,5 7,6 9,3 12,1 0 0 6 4 N 1030,5 22 0 0,0
21.10.2018 20:00:00 4,9 1,7 1,0 8,4 9,4 12,1 3 1 12 6 N 1029,8 26 0 0,0
21.10.2018 19:00:00 7,0 2,2 1,9 9,4 9,4 12,1 3 2 10 5 NE 1028,9 45 0 0,0
21.10.2018 18:00:00 8,5 1,7 6,8 10,3 9,2 12,1 8 4 15 8 N 1028,1 44 14 0,0
21.10.2018 17:00:00 10,5 0,9 10,5 10,6 9,1 12,1 10 5 16 9 NNE 1027,6 60 43 0,0
21.10.2018 16:00:00 10,0 2,2 9,9 10,7 8,9 12,1 3 1 15 8 NE 1028,1 30 1 0,0
21.10.2018 15:00:00 10,8 1,7 13,7 10,5 8,8 12,1 3 1 17 9 E 1028,1 42 9 0,0
21.10.2018 14:00:00 10,3 1,8 11,7 10,0 8,6 12,1 6 3 21 11 NNE 1028,5 43 2 0,0
21.10.2018 13:00:00 9,9 0,8 11,9 9,2 8,5 12,1 12 6 25 13 NNE 1028,7 38 15 0,0
21.10.2018 12:00:00 9,0 2,7 10,1 8,6 8,5 12,1 4 2 12 6 N 1029,4 42 0 0,0
21.10.2018 11:00:00 9,1 2,5 10,6 7,7 8,5 12,1 6 3 11 6 NNE 1029,3 33 31 0,0
21.10.2018 10:00:00 7,2 3,4 7,9 6,7 8,6 12,1 5 3 11 6 E 1029,8 18 45 0,0
21.10.2018 09:00:00 4,7 2,7 4,2 6,6 8,8 12,1 4 2 6 3 SSE 1030,2 12 7 0,0
21.10.2018 08:00:00 4,4 2,5 3,1 6,8 8,9 12,1 2 1 6 4 WSW 1029,7 15 0 0,0
21.10.2018 07:00:00 4,8 2,4 1,4 7,3 9,0 12,1 2 1 8 4 SE 1029,4 19 0 0,0
21.10.2018 06:00:00 6,1 2,9 4,8 7,6 9,1 12,1 5 3 14 7 N 1029,3 19 0 0,0
21.10.2018 05:00:00 6,3 2,9 4,7 7,8 9,2 12,1 7 4 18 10 NNE 1029,0 17 0 0,0
21.10.2018 04:00:00 7,2 2,8 6,6 7,9 9,3 12,1 11 6 20 11 N 1028,5 23 0 0,0
21.10.2018 03:00:00 7,5 2,7 6,8 8,0 9,4 12,1 12 6 25 14 NNE 1028,5 23 0 0,0
21.10.2018 02:00:00 7,5 3,1 6,6 8,2 9,6 12,1 11 6 23 12 NNE 1028,8 19 0 0,0
21.10.2018 01:00:00 7,7 3,1 6,9 8,4 9,7 12,1 11 6 22 12 NNE 1029,1 19 0 0,0
21.10.2018 00:00:00 7,5 3,0 5,9 8,6 9,8 12,1 7 4 19 10 N 1029,4 23 0 0,0
20.10.2018 23:00:00 8,4 3,7 7,4 8,9 9,9 12,1 9 5 24 13 N 1029,2 23 0 0,0
20.10.2018 22:00:00 9,3 4,6 8,3 9,1 10,0 12,1 15 8 29 16 N 1028,8 18 0 0,0
20.10.2018 21:00:00 7,1 4,9 5,0 9,5 10,1 12,1 3 2 7 4 NNE 1029,3 8 0 0,0
20.10.2018 20:00:00 7,8 4,8 6,0 10,0 10,1 12,1 5 3 7 4 SE 1028,7 10 0 0,0
20.10.2018 19:00:00 9,4 4,9 6,0 10,8 10,1 12,1 3 2 16 9 NW 1028,1 12 0 0,0
20.10.2018 18:00:00 11,7 4,3 10,1 11,7 9,9 12,1 10 5 25 13 WNW 1027,0 14 23 0,0
20.10.2018 17:00:00 12,7 5,1 12,8 12,1 9,7 12,1 13 7 24 13 W 1026,8 11 3 0,0
20.10.2018 16:00:00 14,0 4,5 15,7 12,0 9,5 12,1 4 2 11 6 NW 1026,4 11 22 0,0
20.10.2018 15:00:00 13,4 7,3 15,7 11,8 9,3 12,1 5 3 13 7 W 1026,6 6 30 0,0
20.10.2018 14:00:00 12,4 7,6 15,9 10,6 9,2 12,2 7 4 12 7 W 1027,4 5 16 0,0
20.10.2018 13:00:00 10,9 7,7 11,4 10,2 9,1 12,2 10 5 14 8 W 1028,2 4,6 0 0,0
20.10.2018 12:00:00 10,7 7,6 11,8 9,4 9,0 12,2 2 1 5 3 NW 1028,2 5 0 0,0
20.10.2018 11:00:00 8,8 6,8 9,4 8,6 9,0 12,2 0 0 4 2 N 1028,5 5 0 0,0
20.10.2018 10:00:00 7,0 5,7 7,6 8,0 9,1 12,2 2 1 5 3 N 1028,5 4,1 0 0,0
20.10.2018 09:00:00 6,0 5,1 6,4 7,5 9,2 12,2 2 1 5 3 WNW 1028,6 3,8 0 0,0
20.10.2018 08:00:00 4,9 4,2 5,0 7,3 9,3 12,2 2 1 5 3 NNW 1028,5 2,5 0 0,0
20.10.2018 07:00:00 4,4 3,8 4,7 7,1 9,5 12,2 3 1 4 2 SW 1028,1 3,4 0 0,0
20.10.2018 06:00:00 3,8 3,4 4,1 7,1 9,6 12,2 2 1 7 4 SW 1027,6 2,8 0 0,0
20.10.2018 05:00:00 3,3 3,1 2,9 7,2 9,9 12,2 3 2 5 3 W 1027,6 1,6 0 0,0
20.10.2018 04:00:00 4,1 3,9 4,0 7,3 10,1 12,2 3 2 6 4 SE 1027,2 1,7 0 0,0
20.10.2018 03:00:00 3,9 3,5 1,3 7,7 10,4 12,2 4 2 5 3 SE 1027,3 1,5 0 0,0
20.10.2018 02:00:00 4,5 4,2 1,8 8,3 10,6 12,2 2 1 8 4 NNW 1027,1 0,2 0 0,0
20.10.2018 01:00:00 5,2 4,8 2,3 8,9 10,8 12,2 2 1 8 4 S 1026,9 1,2 0 0,0
20.10.2018 00:00:00 6,2 5,5 3,4 9,6 11,0 12,2 3 2 9 5 ESE 1026,3 1,8 0 0,0
19.10.2018 23:00:00 8,7 7,4 6,4 10,2 11,1 12,2 6 4 11 6 NE 1025,4 3,0 0 0,0
19.10.2018 22:00:00 9,2 7,4 6,9 10,8 11,3 12,2 8 5 14 8 NE 1025,0 3,5 0 0,0
19.10.2018 21:00:00 9,8 7,8 8,0 11,5 11,4 12,2 9 5 15 8 NNE 1024,3 3,6 0 0,0
19.10.2018 20:00:00 10,1 7,9 7,3 12,4 11,4 12,2 6 3 14 8 NE 1023,9 3,7 0 0,0
19.10.2018 19:00:00 11,3 8,2 9,5 13,4 11,2 12,2 9 5 16 9 NNE 1023,0 4,7 0 0,0
19.10.2018 18:00:00 13,6 8,7 12,6 14,3 11,0 12,2 10 5 16 8 N 1022,0 6 0 0,0
19.10.2018 17:00:00 15,5 8,9 15,5 14,8 10,6 12,2 5 3 13 7 NNE 1021,2 8 1 0,0
19.10.2018 16:00:00 15,7 8,6 16,7 15,0 10,2 12,2 11 6 23 13 NNE 1021,2 7 38 0,0
19.10.2018 15:00:00 17,3 7,1 21,9 14,2 9,8 12,2 6 3 14 8 SSE 1020,7 11 60 0,0
19.10.2018 14:00:00 16,9 7,3 19,3 13,3 9,5 12,2 8 4 15 8 SW 1021,1 10 60 0,0
19.10.2018 13:00:00 16,1 7,5 18,6 12,1 9,3 12,2 8 4 13 7 WSW 1021,7 10 60 0,0
19.10.2018 12:00:00 15,1 7,2 16,7 10,6 9,1 12,2 5 3 14 8 NNW 1022,3 10 60 0,0
19.10.2018 11:00:00 13,3 8,0 14,4 9,1 9,1 12,2 8 4 16 9 NNE 1022,8 7 60 0,0
19.10.2018 10:00:00 11,4 7,3 11,5 7,9 9,2 12,2 10 6 20 11 NNE 1023,3 5 60 0,0
19.10.2018 09:00:00 10,2 7,4 8,6 7,3 9,4 12,2 9 5 19 10 NNE 1023,2 4,0 15 0,0
19.10.2018 08:00:00 8,7 6,9 5,9 7,4 9,5 12,2 6 3 11 6 NE 1023,2 3,2 0 0,0
19.10.2018 07:00:00 8,4 7,0 5,1 7,7 9,7 12,2 6 3 14 8 NE 1023,0 2,4 0 0,0
19.10.2018 06:00:00 8,7 6,8 6,5 7,8 9,9 12,2 12 6 19 10 NE 1022,5 2,6 0 0,0
19.10.2018 05:00:00 8,9 7,6 5,6 8,1 10,0 12,2 6 3 18 10 ENE 1022,4 2,5 0 0,0
19.10.2018 04:00:00 8,5 6,7 5,0 8,4 10,2 12,2 4 2 13 7 ENE 1022,7 3,0 0 0,0
19.10.2018 03:00:00 9,9 7,5 7,2 8,7 10,3 12,2 9 5 18 10 N 1022,2 3,7 0 0,0
19.10.2018 02:00:00 10,0 7,4 7,3 9,0 10,5 12,3 9 5 15 8 NE 1022,2 4,1 0 0,0
19.10.2018 01:00:00 9,9 7,2 6,4 9,3 10,7 12,3 5 3 18 10 ENE 1022,6 4,5 0 0,0
19.10.2018 00:00:00 10,2 7,5 8,1 9,7 10,8 12,3 10 6 15 8 NNE 1022,4 5 0 0,0
18.10.2018 23:00:00 10,1 7,4 7,0 10,2 11,0 12,3 6 4 15 8 NNE 1022,4 7 0 0,0
18.10.2018 22:00:00 11,2 7,3 7,9 10,8 11,1 12,3 8 5 16 8 NE 1021,8 8 0 0,0
18.10.2018 21:00:00 10,7 6,9 6,9 11,4 11,1 12,3 6 3 19 11 NE 1021,5 8 0 0,0
18.10.2018 20:00:00 11,7 7,7 9,2 12,1 11,1 12,3 10 5 18 10 NNE 1020,7 10 0 0,0
18.10.2018 19:00:00 13,0 8,4 10,8 13,0 11,0 12,3 10 5 18 10 NNE 1019,8 10 0 0,0
18.10.2018 18:00:00 15,3 8,6 13,9 13,7 10,7 12,3 11 6 21 12 N 1018,6 14 0 0,0
18.10.2018 17:00:00 15,9 9,0 15,1 14,1 10,4 12,3 9 5 17 9 N 1018,1 17 1 0,0
18.10.2018 16:00:00 17,2 7,5 16,7 14,4 10,0 12,3 9 5 18 10 NE 1017,7 19 31 0,0
18.10.2018 15:00:00 18,2 7,8 19,5 14,0 9,6 12,3 10 5 18 10 WSW 1017,3 23 32 0,0
18.10.2018 14:00:00 19,0 6,3 21,2 13,0 9,2 12,3 5 3 12 7 NW 1017,2 31 60 0,0
18.10.2018 13:00:00 18,6 7,7 21,1 11,5 9,0 12,3 5 3 10 5 SSW 1017,7 21 60 0,0
18.10.2018 12:00:00 15,1 7,7 17,4 9,7 8,9 12,3 6 3 9 5 SSW 1019,2 22 60 0,0
18.10.2018 11:00:00 11,1 6,0 11,2 7,9 9,0 12,3 4 2 6 3 WSW 1020,6 14 60 0,0
18.10.2018 10:00:00 7,2 4,3 7,4 6,5 9,1 12,3 3 1 4 2 WSW 1021,5 11 60 0,0
18.10.2018 09:00:00 4,1 2,6 4,4 6,0 9,4 12,3 2 1 4 2 SSW 1022,2 6 42 0,0
18.10.2018 08:00:00 2,8 2,6 0,7 6,2 9,6 12,3 1 1 5 3 NNW 1022,2 2,0 0 0,0
18.10.2018 07:00:00 3,4 3,3 0,3 6,6 9,8 12,3 0 0 3 2 N 1021,5 2,3 0 0,0
18.10.2018 06:00:00 3,7 3,5 0,4 7,0 10,1 12,3 2 1 4 2 SW 1021,6 3,0 0 0,0
18.10.2018 05:00:00 4,1 3,8 0,7 7,4 10,3 12,3 3 1 5 3 S 1021,4 4,4 0 0,0
18.10.2018 04:00:00 4,2 3,4 2,5 7,9 10,5 12,3 4 2 6 4 E 1021,7 4,3 0 0,0
18.10.2018 03:00:00 4,7 4,3 1,9 8,4 10,8 12,3 2 1 5 3 N 1021,8 4,1 0 0,0
18.10.2018 02:00:00 5,2 4,6 2,4 8,9 11,0 12,3 3 1 5 3 SW 1021,8 7 0 0,0
18.10.2018 01:00:00 6,0 5,6 3,0 9,5 11,2 12,3 0 0 5 3 N 1021,6 4,1 0 0,0
18.10.2018 00:00:00 6,5 5,6 3,7 10,2 11,4 12,3 3 1 5 3 E 1021,5 9 0 0,0
17.10.2018 23:00:00 8,1 7,0 4,9 10,9 11,6 12,3 3 1 6 3 SE 1021,1 13 0 0,0
17.10.2018 22:00:00 9,1 7,2 6,2 11,7 11,7 12,3 5 3 9 5 E 1020,7 12 0 0,0
17.10.2018 21:00:00 11,1 8,6 7,7 12,5 11,7 12,3 5 3 15 8 ENE 1019,9 14 0 0,0
17.10.2018 20:00:00 12,4 9,0 8,6 13,4 11,7 12,3 4 2 15 8 NNE 1019,3 16 0 0,0
17.10.2018 19:00:00 14,5 9,0 10,3 14,4 11,5 12,3 6 3 9 5 ENE 1018,4 20 0 0,0
17.10.2018 18:00:00 15,9 9,0 14,7 15,3 11,1 12,3 7 4 16 9 NNE 1017,9 22 51 0,0
17.10.2018 17:00:00 18,1 9,0 18,7 15,7 10,7 12,3 11 6 22 12 NNW 1017,1 25 60 0,0
17.10.2018 16:00:00 19,6 7,0 22,9 15,2 10,2 12,3 7 4 14 8 SW 1016,8 22 60 0,0
17.10.2018 15:00:00 19,2 6,8 21,7 14,5 9,8 12,4 8 4 13 7 WSW 1017,1 16 60 0,0
17.10.2018 14:00:00 18,6 7,0 20,9 13,5 9,4 12,4 8 4 11 6 WSW 1017,7 18 60 0,0
17.10.2018 13:00:00 17,8 8,1 19,8 12,0 9,2 12,4 3 2 11 6 WSW 1018,4 13 60 0,0
17.10.2018 12:00:00 15,8 7,5 17,7 10,3 9,1 12,4 4 2 6 4 SSW 1019,5 13 60 0,0
17.10.2018 11:00:00 12,4 6,6 12,7 8,5 9,1 12,4 4 2 5 3 W 1020,5 13 60 0,0
17.10.2018 10:00:00 8,8 5,2 8,5 7,3 9,2 12,4 2 1 5 3 SW 1021,5 11 42 0,0
17.10.2018 09:00:00 5,5 4,1 5,3 6,9 9,4 12,4 2 1 4 2 NNW 1022,4 6 31 0,0
17.10.2018 08:00:00 4,4 4,1 2,6 6,9 9,6 12,4 0 0 6 3 N 1022,5 4,4 0 0,0

tt = Température de l'air
td = dewpoint
tt 5cm = Température de l'air 5cm
tt -5cm = Température de l'air -5cm
tt -20cm = Température de l'air -20cm
tt -100cm = Température de l'air -100cm
ff = Vitesse du vent
fx = gusts
dd = Direction du vent
ppp = reduced air pressure
vv = visibility
sd = Ensoleillement
rr = Quantités de précipitations

stations d'obs. à proximité